E23XBQ-1 Weather Reports


Display with metric or nautical units.
time (UTC)temp
F
wind
direction
speed
MPH
gust
MPH
rain 1hr
in
rain 24hr
in
rain mn
in
humidity
%
barometer
mb
20260901092810 84 0 0.0 0.0 0.00 0.00 0.00 72 968.0
20260901091746 85 0 0.0 0.0 0.00 0.00 0.00 71 968.0
20260901090721 86 0 0.0 0.0 0.00 0.00 0.00 72 968.0
20260901085656 83 0 0.0 0.0 0.00 0.00 0.00 73 968.0
20260901084627 81 0 0.0 0.0 0.00 0.00 0.00 79 969.0
20260901083600 81 0 0.0 0.0 0.00 0.00 0.00 81 969.0
20260901082535 80 0 0.0 0.0 0.00 0.00 0.00 79 969.0
20260901081511 80 0 0.0 0.0 0.00 0.00 0.00 79 969.0
20260901080446 80 0 0.0 0.0 0.00 0.00 0.00 79 969.0
20260901075421 81 0 0.0 0.0 0.00 0.00 0.00 75 970.0
20260901074805 81 0 0.0 0.0 0.00 0.00 0.00 75 970.0
20260901073739 83 0 0.0 0.0 0.00 0.00 0.00 72 970.0
20260901072715 86 0 0.0 0.0 0.00 0.00 0.00 65 969.0
20260901071650 87 0 0.0 0.0 0.00 0.00 0.00 63 969.0
20260901070626 89 0 0.0 0.0 0.00 0.00 0.00 58 969.0
20260901065602 93 0 0.0 0.0 0.00 0.00 0.00 51 969.0
20260901064538 98 0 0.0 0.0 0.00 0.00 0.00 45 969.0
20260901063514 97 0 0.0 0.0 0.00 0.00 0.00 45 969.0
20260901062449 96 0 0.0 0.0 0.00 0.00 0.00 50 970.0
20260901061425 94 0 0.0 0.0 0.00 0.00 0.00 52 970.0
20260901060401 93 0 0.0 0.0 0.00 0.00 0.00 53 970.0
20260901055337 97 0 0.0 0.0 0.00 0.00 0.00 47 970.0
20260901054313 96 0 0.0 0.0 0.00 0.00 0.00 50 971.0
20260901053248 96 0 0.0 0.0 0.00 0.00 0.00 46 971.0
20260901052224 96 0 0.0 0.0 0.00 0.00 0.00 48 971.0
20260901051200 95 0 0.0 0.0 0.00 0.00 0.00 48 971.0
20260901050135 95 0 0.0 0.0 0.00 0.00 0.00 51 971.0
20260901045111 94 0 0.0 0.0 0.00 0.00 0.00 47 971.0
20260901044047 94 0 0.0 0.0 0.00 0.00 0.00 46 972.0
20260901043023 93 0 0.0 0.0 0.00 0.00 0.00 54 972.0
20260901041958 92 0 0.0 0.0 0.00 0.00 0.00 52 972.0
20260901040934 92 0 0.0 0.0 0.00 0.00 0.00 48 972.0
20260901035910 93 0 0.0 0.0 0.00 0.00 0.00 50 972.0
20260901034846 92 0 0.0 0.0 0.00 0.00 0.00 54 972.0
20260901033821 91 0 0.0 0.0 0.00 0.00 0.00 55 972.0
20260901032759 90 0 0.0 0.0 0.00 0.00 0.00 56 972.0
20260901032757 90 0 0.0 0.0 0.00 0.00 0.00 56 972.0
20260901031733 91 0 0.0 0.0 0.00 0.00 0.00 56 973.0
20260901030709 90 0 0.0 0.0 0.00 0.00 0.00 57 973.0
20260901025645 90 0 0.0 0.0 0.00 0.00 0.00 57 973.0
20260901024621 90 0 0.0 0.0 0.00 0.00 0.00 59 973.0
20260901023556 89 0 0.0 0.0 0.00 0.00 0.00 60 973.0
20260901022532 88 0 0.0 0.0 0.00 0.00 0.00 61 973.0
20260901021508 87 0 0.0 0.0 0.00 0.00 0.00 65 973.0
20260901020443 87 0 0.0 0.0 0.00 0.00 0.00 64 973.0
20260901015419 86 0 0.0 0.0 0.00 0.00 0.00 67 973.0
20260901014355 85 0 0.0 0.0 0.00 0.00 0.00 68 973.0
20260901013331 84 0 0.0 0.0 0.00 0.00 0.00 69 973.0
20260901012306 82 0 0.0 0.0 0.00 0.00 0.00 71 973.0
20260901011238 83 0 0.0 0.0 0.00 0.00 0.00 72 973.0
20260901010214 83 0 0.0 0.0 0.00 0.00 0.00 72 972.0
20260901005149 82 0 0.0 0.0 0.00 0.00 0.00 74 972.0
20260901004125 80 0 0.0 0.0 0.00 0.00 0.00 77 972.0
20260901003101 79 0 0.0 0.0 0.00 0.00 0.00 79 972.0
20260901002036 77 0 0.0 0.0 0.00 0.00 0.00 84 972.0
20260901001011 77 0 0.0 0.0 0.00 0.00 0.00 86 972.0
20260831235943 77 0 0.0 0.0 0.00 0.00 0.00 85 972.0
20260831234914 77 0 0.0 0.0 0.00 0.00 0.00 85 972.0
20260831233842 76 0 0.0 0.0 0.00 0.00 0.00 86 972.0
20260831232812 76 0 0.0 0.0 0.00 0.00 0.00 87 972.0
20260831231744 76 0 0.0 0.0 0.00 0.00 0.00 85 972.0
20260831230716 77 0 0.0 0.0 0.00 0.00 0.00 85 972.0
20260831225646 77 0 0.0 0.0 0.00 0.00 0.00 84 972.0
20260831224621 77 0 0.0 0.0 0.00 0.00 0.00 84 971.0
20260831223553 78 0 0.0 0.0 0.00 0.00 0.00 83 971.0
20260831222523 77 0 0.0 0.0 0.00 0.00 0.00 82 971.0
20260831221451 77 0 0.0 0.0 0.00 0.00 0.00 84 971.0
20260831220419 77 0 0.0 0.0 0.00 0.00 0.00 85 971.0
20260831215354 77 0 0.0 0.0 0.00 0.00 0.00 85 971.0
20260831214330 77 0 0.0 0.0 0.00 0.00 0.00 84 971.0
20260831213306 77 0 0.0 0.0 0.00 0.00 0.00 85 971.0
20260831212242 76 0 0.0 0.0 0.00 0.00 0.00 87 971.0
20260831211217 76 0 0.0 0.0 0.00 0.00 0.00 87 971.0
20260831210153 77 0 0.0 0.0 0.00 0.00 0.00 85 971.0
20260831205129 76 0 0.0 0.0 0.00 0.00 0.00 85 971.0
20260831204105 77 0 0.0 0.0 0.00 0.00 0.00 85 971.0
20260831203041 77 0 0.0 0.0 0.00 0.00 0.00 86 971.0
20260831202016 77 0 0.0 0.0 0.00 0.00 0.00 85 971.0
20260831200952 76 0 0.0 0.0 0.00 0.00 0.00 86 971.0
20260831195928 77 0 0.0 0.0 0.00 0.00 0.00 84 971.0
20260831194904 77 0 0.0 0.0 0.00 0.00 0.00 81 971.0
20260831193839 77 0 0.0 0.0 0.00 0.00 0.00 83 971.0
20260831192815 77 0 0.0 0.0 0.00 0.00 0.00 83 971.0
20260831191751 78 0 0.0 0.0 0.00 0.00 0.00 81 971.0
20260831190727 78 0 0.0 0.0 0.00 0.00 0.00 81 971.0
20260831185702 78 0 0.0 0.0 0.00 0.00 0.00 81 971.0
20260831184638 78 0 0.0 0.0 0.00 0.00 0.00 80 972.0
20260831183614 79 0 0.0 0.0 0.00 0.00 0.00 81 972.0
20260831182550 79 0 0.0 0.0 0.00 0.00 0.00 75 972.0
20260831181525 79 0 0.0 0.0 0.00 0.00 0.00 76 972.0
20260831180501 78 0 0.0 0.0 0.00 0.00 0.00 81 972.0
20260831175437 78 0 0.0 0.0 0.00 0.00 0.00 81 972.0
20260831174413 77 0 0.0 0.0 0.00 0.00 0.00 84 972.0
20260831173349 77 0 0.0 0.0 0.00 0.00 0.00 82 972.0
20260831172324 78 0 0.0 0.0 0.00 0.00 0.00 82 972.0
20260831171300 78 0 0.0 0.0 0.00 0.00 0.00 82 972.0
20260831170236 78 0 0.0 0.0 0.00 0.00 0.00 82 972.0
20260831165212 78 0 0.0 0.0 0.00 0.00 0.00 82 972.0
20260831164147 78 0 0.0 0.0 0.00 0.00 0.00 82 972.0
20260831163123 78 0 0.0 0.0 0.00 0.00 0.00 81 972.0
20260831162059 78 0 0.0 0.0 0.00 0.00 0.00 81 972.0
20260831161034 78 0 0.0 0.0 0.00 0.00 0.00 82 972.0
20260831160010 78 0 0.0 0.0 0.00 0.00 0.00 82 972.0
20260831154946 78 0 0.0 0.0 0.00 0.00 0.00 82 972.0
20260831153922 78 0 0.0 0.0 0.00 0.00 0.00 81 972.0
20260831152858 78 0 0.0 0.0 0.00 0.00 0.00 82 972.0
20260831151833 78 0 0.0 0.0 0.00 0.00 0.00 81 972.0
20260831150809 79 0 0.0 0.0 0.00 0.00 0.00 81 972.0
20260831145740 79 0 0.0 0.0 0.00 0.00 0.00 81 972.0
20260831144707 79 0 0.0 0.0 0.00 0.00 0.00 82 972.0
20260831143642 79 0 0.0 0.0 0.00 0.00 0.00 81 971.0
20260831142618 79 0 0.0 0.0 0.00 0.00 0.00 81 971.0
20260831141554 79 0 0.0 0.0 0.00 0.00 0.00 80 971.0
20260831140530 79 0 0.0 0.0 0.00 0.00 0.00 81 971.0
20260831135505 80 0 0.0 0.0 0.00 0.00 0.00 81 971.0
20260831134441 80 0 0.0 0.0 0.00 0.00 0.00 81 971.0
20260831133417 80 0 0.0 0.0 0.00 0.00 0.00 81 970.0
20260831132353 80 0 0.0 0.0 0.00 0.00 0.00 81 970.0
20260831131329 80 0 0.0 0.0 0.00 0.00 0.00 80 970.0
20260831130304 80 0 0.0 0.0 0.00 0.00 0.00 80 970.0
20260831125240 80 0 0.0 0.0 0.00 0.00 0.00 80 970.0
20260831124216 80 0 0.0 0.0 0.00 0.00 0.00 80 970.0
20260831123152 80 0 0.0 0.0 0.00 0.00 0.00 81 970.0
20260831122128 80 0 0.0 0.0 0.00 0.00 0.00 80 970.0
20260831121103 80 0 0.0 0.0 0.00 0.00 0.00 80 969.0
20260831120039 80 0 0.0 0.0 0.00 0.00 0.00 81 969.0
20260831115015 80 0 0.0 0.0 0.00 0.00 0.00 80 969.0
20260831113949 81 0 0.0 0.0 0.00 0.00 0.00 79 969.0
20260831112920 81 0 0.0 0.0 0.00 0.00 0.00 79 969.0
20260831111849 82 0 0.0 0.0 0.00 0.00 0.00 78 969.0
20260831110816 82 0 0.0 0.0 0.00 0.00 0.00 77 968.0
20260831105747 82 0 0.0 0.0 0.00 0.00 0.00 76 968.0
20260831104719 83 0 0.0 0.0 0.00 0.00 0.00 75 968.0
20260831103653 83 0 0.0 0.0 0.00 0.00 0.00 74 968.0
20260831102629 84 0 0.0 0.0 0.00 0.00 0.00 72 968.0
20260831101604 84 0 0.0 0.0 0.00 0.00 0.00 72 968.0
20260831100537 84 0 0.0 0.0 0.00 0.00 0.00 71 968.0
20260831095512 85 0 0.0 0.0 0.00 0.00 0.00 69 968.0
20260831094447 86 0 0.0 0.0 0.00 0.00 0.00 67 968.0
20260831093423 86 0 0.0 0.0 0.00 0.00 0.00 67 968.0